This is the latest recevied weather packets stored in our database for station/object WY7EM. If no packets are shown the sender has not sent any weather packets the latest 10 day(s).
| Time | Temp. | Humidity | Pressure | Rain* | Wind** | Luminosity | Snow |
|---|---|---|---|---|---|---|---|
| 1777743384 | 21.11° C | 19% | 1020.7 hPa | 0 mm | - | 749 W/m² | - |
| 1777743082 | 20.56° C | 19% | 1020.8 hPa | 0 mm | - | 736 W/m² | - |
| 1777742779 | 20° C | 20% | 1020.8 hPa | 0 mm | - | 723 W/m² | - |
| 1777742475 | 20.56° C | 19% | 1021 hPa | 0 mm | - | 709 W/m² | - |
| 1777742171 | 20° C | 20% | 1021 hPa | 0 mm | - | 696 W/m² | - |
| 1777741868 | 20° C | 19% | 1020.8 hPa | 0 mm | - | 683 W/m² | - |
| 1777741565 | 19.44° C | 20% | 1021 hPa | 0 mm | - | 671 W/m² | - |
| 1777741262 | 20° C | 19% | 1021 hPa | 0 mm | - | 658 W/m² | - |
| 1777740958 | 18.89° C | 20% | 1021.1 hPa | 0 mm | - | 644 W/m² | - |
| 1777740656 | 18.33° C | 19% | 1021.1 hPa | 0 mm | - | 630 W/m² | - |
| 1777740352 | 19.44° C | 20% | 1021 hPa | 0 mm | - | 618 W/m² | - |
| 1777740049 | 18.89° C | 19% | 1021.2 hPa | 0 mm | - | 604 W/m² | - |
| 1777739745 | 18.33° C | 19% | 1021 hPa | 0 mm | - | 589 W/m² | - |
| 1777739442 | 17.22° C | 20% | 1021.1 hPa | 0 mm | - | 575 W/m² | - |
| 1777739139 | 17.22° C | 20% | 1021.1 hPa | 0 mm | - | 560 W/m² | - |
| 1777738836 | 16.67° C | 20% | 1021.1 hPa | 0 mm | - | 548 W/m² | - |
| 1777738532 | 16.67° C | 20% | 1021 hPa | 0 mm | - | 533 W/m² | - |
| 1777738230 | 16.67° C | 20% | 1021.1 hPa | 0 mm | - | 518 W/m² | - |
| 1777737928 | 15.56° C | 20% | 1021.2 hPa | 0 mm | - | 502 W/m² | - |
| 1777737626 | 16.11° C | 21% | 1021.1 hPa | 0 mm | - | 486 W/m² | - |
| 1777737325 | 15.56° C | 21% | 1021 hPa | 0 mm | - | 471 W/m² | - |
| 1777737021 | 15.56° C | 22% | 1021.2 hPa | 0 mm | - | 455 W/m² | - |
| 1777736717 | 15° C | 22% | 1021 hPa | 0 mm | - | 431 W/m² | - |
| 1777736078 | 15° C | 22% | 1020.8 hPa | 0 mm | - | 400 W/m² | - |
| 1777735774 | 13.89° C | 23% | 1020.8 hPa | 0 mm | - | 382 W/m² | - |
* Rain latest hour (hover to see other rain measurements)
** Current wind speed in m/s (hover to see current wind gust speed)